Tracking 22836 objects as of 16-Apr-2021
HD Live streaming from Space Station
objects crossing your sky now

STARLINK-1393

Track STARLINK-1393 now!
10-day predictions
STARLINK-1393 is classified as:


NORAD ID: 45678
Int'l Code: 2020-035X
Perigee: 553.6 km
Apogee: 555.1 km
Inclination: 53.1 °
Period: 95.6 minutes
Semi major axis: 6925 km
RCS: Unknown
Launch date: June 4, 2020
Source: United States (US)
Launch site: AIR FORCE EASTERN TEST RANGE (AFETR)
aabbcc
Your satellite tracking list
Your tracking list is empty




NASA's NSSDC Master Catalog

Two Line Element Set (TLE):
1 45678U 20035X   21105.59517811  .00000761  00000-0  70007-4 0  9998
2 45678  53.0573 168.1590 0001131 128.2910 231.8181 15.06394891 49197
Source of the keplerian elements: AFSPC